19P/Borrelly (2001)

Japanese version
Home page
Updated on May 5, 2012

---------------------------------------------------------------------

* Profile

* Orbital Elements

Epoch 2001 Sept. 8.0 TT = JDT 2452160.5
T 2001 Sept. 14.73128 TT                                MPC
q   1.3582084            (2000.0)            P               Q
n   0.14362284     Peri.  353.37547     +0.34634205     -0.80079089
a   3.6112180      Node    75.42492     +0.88220606     +0.10090212
e   0.6238919      Incl.   30.32476     +0.31899788     +0.59038353
P   6.86
From 2017 observations 1994 June 12-2010 Feb. 11, mean residual 0".8.
     Nongravitational parameters A1 = +0.22, A2 = -0.0379.

* Finding Charts

* Magnitudes Graph

        m1 = 7.4 + 5 log d + 15.0 log r

---------------------------------------------------------------------

The orbital elements are published on M.P.E.C. 2012-J16.
The charts are made with StellaNavigator Ver.2.0 for Windows (AstroArts / ASCII).
The magnitudes graphs are made with Comet for Windows.

---------------------------------------------------------------------

Copyright(C) Seiichi Yoshida (comet@aerith.net). All rights reserved.